Location: Unspecified
(0.0000°N, 0.0000°E)
Time: 15:59:55
(UTC+02:00)

BREEZE-M DEB (TANK) - Visible Passes

Search period start: 21 September 2017 00:00
Search period end: 01 October 2017 00:00
Orbit: 347 x 16295 km, 49.4° (Epoch: 19 September)

Date Brightness Start Highest point End Pass type
(mag) Time Alt. Az. Time Alt. Az. Time Alt. Az.
23 Sep 6.4 04:10:04 19° SE 04:10:04 19° SE 04:14:19 10° SE visible
24 Sep 5.9 04:48:16 27° SSE 04:48:16 27° SSE 04:56:48 10° SSE visible
25 Sep 5.8 05:26:27 26° SSW 05:26:27 26° SSW 05:39:11 10° SSE visible
26 Sep 6.1 06:04:37 17° SW 06:07:38 18° SSW 06:22:03 10° SSE visible
27 Sep 6.5 06:44:36 10° SW 06:51:48 14° S 07:06:58 10° SSE visible
28 Sep 6.9 07:29:24 10° SSW 07:39:29 13° S 08:02:17 10° SSE visible
30 Sep 6.8 03:41:34 14° SE 03:41:34 14° SE 03:43:38 10° SE visible
